Location: Cañada de la Miga
(34.7595°N, 106.2317°W)
Time: 03:10:42
(UTC+00:00)

Altair - All Passes

Search period start: 30 November 2021 00:00
Search period end: 10 December 2021 00:00
Orbit: 1502 x 1682 km, 47.2° (Epoch: 29 November)

Date Brightness Start Highest point End Pass type
(mag) Time Alt. Az. Time Alt. Az. Time Alt. Az.
30 Nov - 01:19:15 10° W 01:28:05 44° NNW 01:36:46 10° NE visible
30 Nov - 03:26:09 10° WNW 03:34:42 40° N 03:43:12 10° ENE visible
30 Nov - 05:31:19 10° NW 05:40:31 76° NNE 05:49:49 10° ESE visible
30 Nov - 07:36:40 10° WNW 07:44:39 35° SW 07:52:49 10° SSE night (unlit)
30 Nov - 20:46:35 10° S 20:53:38 23° SE 21:00:30 10° E daylight
30 Nov - 22:47:49 10° SW 22:57:25 82° SE 23:06:43 10° NE daylight
01 Dec - 00:53:52 10° W 01:02:48 45° NNW 01:11:33 10° NE visible
01 Dec - 03:00:52 10° WNW 03:09:24 39° N 03:17:50 10° ENE visible
01 Dec - 05:06:09 10° NW 05:15:20 72° NNE 05:24:34 10° ESE visible
01 Dec - 07:11:21 10° WNW 07:19:34 38° SW 07:27:56 10° SSE night (unlit)
01 Dec - 20:21:59 10° S 20:28:33 21° SE 20:34:57 10° E daylight
01 Dec - 22:22:39 10° SW 22:32:15 77° SE 22:41:33 10° ENE daylight
02 Dec - 00:28:30 10° W 00:37:31 47° NNW 00:46:20 10° NE visible
02 Dec - 02:35:34 10° WNW 02:44:05 38° N 02:52:30 10° ENE visible
02 Dec - 04:40:58 10° NW 04:50:08 67° NNE 04:59:19 10° ESE visible
02 Dec - 06:46:04 10° WNW 06:54:29 42° SW 07:03:02 10° SSE night (unlit)
02 Dec - 19:57:29 10° SSE 20:03:28 18° SE 20:09:19 10° E daylight
02 Dec - 21:57:30 10° SW 22:07:06 71° SE 22:16:22 10° ENE daylight
03 Dec - 00:03:06 10° W 00:12:14 50° NNW 00:21:09 10° NE visible
03 Dec - 02:10:15 10° WNW 02:18:46 38° N 02:27:10 10° ENE visible
03 Dec - 04:15:47 10° NW 04:24:55 63° NNE 04:34:02 10° ESE visible
03 Dec - 06:20:48 10° WNW 06:29:23 46° SW 06:38:05 10° SSE night (unlit)
03 Dec - 19:33:07 10° SSE 19:38:24 16° SE 19:43:34 10° E daylight
03 Dec - 21:32:23 10° SW 21:41:57 66° SE 21:51:10 10° ENE daylight
03 Dec - 23:37:44 10° W 23:46:58 52° NNW 23:55:57 10° NE daylight
04 Dec - 01:44:55 10° WNW 01:53:27 38° N 02:01:50 10° ENE visible
04 Dec - 03:50:36 10° NW 03:59:42 60° NNE 04:08:45 10° ESE visible
04 Dec - 05:55:33 10° WNW 06:04:17 51° SW 06:13:07 10° SSE visible
04 Dec - 19:08:57 10° SSE 19:13:20 14° ESE 19:17:38 10° E daylight
04 Dec - 21:07:17 10° SSW 21:16:48 61° SE 21:25:59 10° ENE daylight
04 Dec - 23:12:22 10° W 23:21:43 55° NNW 23:30:46 10° NE daylight
05 Dec - 01:19:35 10° WNW 01:28:07 38° N 01:36:31 10° ENE visible
05 Dec - 03:25:24 10° NW 03:34:28 57° NNE 03:43:28 10° ESE visible
05 Dec - 05:30:19 10° WNW 05:39:10 56° SW 05:48:07 10° SSE visible
05 Dec - 07:40:06 10° WSW 07:42:25 11° WSW 07:44:46 10° SW night (unlit)
05 Dec - 18:45:10 10° SE 18:48:16 12° ESE 18:51:20 10° ESE daylight
05 Dec - 20:42:13 10° SSW 20:51:39 56° SE 21:00:46 10° ENE daylight
05 Dec - 22:47:01 10° WSW 22:56:27 58° NNW 23:05:36 10° NE daylight
06 Dec - 00:54:13 10° WNW 01:02:48 38° N 01:11:12 10° ENE visible
06 Dec - 03:00:12 10° NW 03:09:13 54° NNE 03:18:09 10° E visible
06 Dec - 05:05:05 10° WNW 05:14:03 61° SW 05:23:05 10° SE visible
06 Dec - 07:13:36 10° W 07:17:23 13° WSW 07:21:12 10° SSW night (unlit)
06 Dec - 20:17:11 10° SSW 20:26:31 51° SE 20:35:32 10° ENE daylight
06 Dec - 22:21:40 10° WSW 22:31:12 61° NNW 22:40:25 10° NE daylight
07 Dec - 00:28:51 10° WNW 00:37:29 38° N 00:45:55 10° ENE visible
07 Dec - 02:34:58 10° NW 02:43:58 51° NNE 02:52:50 10° E visible
07 Dec - 04:39:52 10° WNW 04:48:56 66° SW 04:58:01 10° SE visible
07 Dec - 06:47:35 10° W 06:52:20 15° WSW 06:57:08 10° SSW night (unlit)
07 Dec - 19:52:10 10° SSW 20:01:24 47° SE 20:10:17 10° ENE daylight
07 Dec - 21:56:21 10° WSW 22:05:58 65° NNW 22:15:15 10° NE daylight
08 Dec - 00:03:28 10° WNW 00:12:09 38° N 00:20:37 10° ENE visible
08 Dec - 02:09:45 10° NW 02:18:42 49° NNE 02:27:30 10° E visible
08 Dec - 04:14:40 10° WNW 04:23:48 72° SW 04:32:56 10° SE visible
08 Dec - 06:21:48 10° W 06:27:17 18° SW 06:32:50 10° SSW night (unlit)
08 Dec - 19:27:12 10° SSW 19:36:16 43° SE 19:45:01 10° ENE daylight
08 Dec - 21:31:02 10° WSW 21:40:44 69° NNW 21:50:05 10° NE daylight
08 Dec - 23:38:05 10° WNW 23:46:49 39° N 23:55:21 10° ENE daylight
09 Dec - 01:44:31 10° NW 01:53:26 47° NNE 02:02:11 10° E visible
09 Dec - 03:49:28 10° WNW 03:58:40 77° SW 04:07:50 10° SE visible
09 Dec - 05:56:09 10° W 06:02:15 20° SW 06:08:24 10° SSW visible
09 Dec - 19:02:16 10° SSW 19:11:09 39° SE 19:19:44 10° ENE daylight
09 Dec - 21:05:44 10° WSW 21:15:30 73° NNW 21:24:55 10° NE daylight
09 Dec - 23:12:40 10° WNW 23:21:30 40° N 23:30:04 10° ENE daylight
